Wind_Speed
24 24 24 24 24 24 23 23 23 23 23 24 25 26 26 26 26 28 29 29 30 31 32 32 33 34 34 34 35 35 36 37 38 37 38 38 40 40
24 24 24 24 24 24 23 23 23 23 22 23 24 25 26 27 26 27 28 29 30 31 32 32 31 33 33 33 33 34 35 36 37 37 38 39 40 40
23 24 24 24 23 23 23 23 23 22 22 23 24 25 26 27 27 27 27 28 29 29 30 30 31 31 32 32 32 33 34 34 35 36 36 38 38 38
23 23 23 23 23 22 22 23 23 22 22 22 23 24 25 25 26 26 26 27 28 28 29 30 30 31 31 32 32 33 33 34 35 35 35 37 37 37
23 23 22 22 22 22 22 22 22 22 22 22 22 23 24 25 24 25 25 26 27 28 29 30 30 31 31 31 32 32 33 33 35 36 36 37 37 38
22 22 22 21 22 22 22 21 21 21 22 22 21 22 23 23 23 24 24 25 26 26 27 28 28 29 29 30 30 30 31 32 33 34 34 35 36 37
22 22 23 22 22 22 20 20 21 21 21 22 21 21 21 22 22 22 23 23 24 25 25 26 26 27 27 28 28 28 29 30 31 32 33 34 34 35
21 22 22 22 22 21 20 19 19 20 20 21 21 21 21 21 22 22 22 22 23 23 23 25 26 26 26 27 28 28 28 29 31 32 33 33 34 35
20 21 21 20 20 20 19 19 19 20 20 20 20 20 20 20 20 20 20 21 22 22 22 23 24 25 26 27 27 28 28 29 30 31 32 33 33 34
19 20 19 19 19 18 18 19 19 19 19 18 18 18 19 19 19 19 19 20 21 20 20 21 22 23 24 25 26 26 28 29 29 30 31 32 34 34
19 18 18 18 18 18 18 18 18 18 18 17 17 17 18 18 18 18 18 19 20 20 21 21 22 22 22 24 25 26 27 28 29 30 31 32 33 34
18 18 18 18 19 19 18 18 17 18 17 16 16 16 16 16 17 17 17 17 17 18 20 20 21 22 22 23 24 25 26 27 28 28 30 31 32 33
18 18 18 19 18 18 18 18 17 17 16 15 15 16 16 16 16 16 16 17 16 17 18 19 20 21 22 22 23 24 25 26 27 28 29 30 31 31
18 18 19 19 19 18 18 18 17 16 16 16 16 16 16 16 17 17 17 17 17 18 18 19 19 21 22 22 22 22 24 25 26 27 28 29 30 31
19 19 19 19 19 20 20 19 18 17 17 17 17 16 16 16 17 17 18 18 19 19 19 20 20 21 21 21 21 22 22 23 24 25 26 27 27 28
20 21 21 21 21 20 19 19 19 19 19 18 17 17 17 17 17 17 18 19 19 20 21 21 21 21 21 21 21 22 22 22 23 25 26 27 27 28
22 22 22 22 21 21 21 20 20 19 19 18 18 18 18 18 18 18 18 19 20 20 20 20 21 21 21 21 21 21 22 22 23 24 25 26 27 27
23 23 23 23 23 22 22 21 20 20 20 20 19 19 19 18 18 18 18 19 20 20 20 21 22 21 21 21 21 21 21 22 23 24 25 25 25 26
25 25 24 24 23 23 22 21 20 20 20 20 20 20 20 19 19 19 19 20 20 20 20 20 21 21 22 22 22 23 23 22 22 22 23 23 24 24
25 25 24 24 24 24 22 21 21 20 20 20 20 20 21 20 20 21 21 22 21 21 21 21 21 21 22 22 22 22 22 23 22 22 22 23 23 23
25 25 25 25 25 24 23 22 21 21 21 22 22 21 22 21 21 22 22 22 22 21 21 21 21 21 21 21 21 21 21 22 22 22 22 22 22 22
26 26 26 26 25 25 24 23 23 22 22 22 23 22 22 22 22 22 22 21 22 22 22 22 22 21 22 22 21 21 21 21 21 22 22 21 22 21
28 28 28 27 26 25 25 24 24 23 23 23 23 23 23 23 23 23 23 22 22 22 22 22 22 22 22 21 21 21 20 20 20 20 20 21 22 22
Wind_Direction
299 299 298 295 292 290 287 285 283 278 273 273 272 269 268 266 264 261 260 260 260 259 257 258 257 255 255 254 253 252 251 249 249 249 247 246 246 246
301 301 300 298 296 292 290 286 283 279 275 273 272 270 269 269 268 264 262 262 262 261 259 259 258 255 256 255 254 254 253 251 250 250 248 247 247 247
303 303 301 301 299 294 291 287 285 282 277 275 272 271 270 270 270 268 265 264 264 261 259 259 259 259 259 257 255 255 254 252 250 250 249 246 245 246
303 304 303 301 301 297 293 290 286 283 280 277 274 273 271 270 271 270 268 266 264 262 260 260 261 260 260 259 257 255 254 252 250 249 249 247 245 245
303 303 303 302 303 300 296 292 288 286 283 280 277 275 274 272 271 270 269 268 266 264 261 260 260 261 260 259 258 256 254 252 250 249 249 248 246 246
303 303 304 304 304 302 298 293 291 288 285 284 283 280 277 274 273 272 270 269 267 266 264 261 260 260 260 259 257 256 255 253 252 251 250 249 248 247
306 305 305 305 304 303 301 298 294 291 289 288 286 284 281 277 275 274 272 272 269 268 265 262 260 259 258 257 256 257 256 254 252 251 251 249 249 248
312 310 309 307 306 305 302 302 300 297 294 291 289 286 281 278 276 275 274 273 272 269 265 262 260 259 259 259 258 258 257 256 253 251 250 249 249 250
316 316 315 312 310 309 306 303 303 301 298 294 291 287 283 279 277 276 275 273 272 269 265 263 261 261 260 260 259 259 257 256 255 253 251 249 249 251
320 318 320 320 317 312 309 307 305 304 301 296 292 289 287 283 280 278 276 273 271 270 267 265 264 263 263 262 262 261 259 257 256 255 254 254 252 252
326 324 323 322 322 319 313 311 308 307 303 298 296 294 291 288 284 281 278 276 273 271 269 268 266 265 263 265 265 264 262 259 258 257 256 256 256 255
329 329 328 326 324 322 320 316 311 307 303 300 299 297 293 289 286 283 281 279 275 272 271 270 269 267 266 266 267 267 265 263 261 259 258 257 257 256
332 331 331 329 327 324 322 320 317 313 308 304 303 299 296 292 287 284 282 280 278 278 276 273 271 270 270 268 268 268 267 264 263 261 260 259 258 256
333 332 331 330 328 325 324 321 319 316 312 308 303 301 299 296 290 285 282 280 280 282 281 279 277 274 274 274 272 269 269 267 266 264 261 260 259 259
333 331 330 327 324 323 322 321 318 316 313 310 304 302 301 299 294 289 285 284 285 286 284 281 280 280 279 277 275 272 270 268 267 265 262 260 260 260
332 331 328 326 324 323 321 319 318 315 312 308 305 303 301 299 297 293 289 286 286 286 285 284 284 284 282 279 278 275 271 269 269 267 263 261 261 261
331 330 329 328 324 322 320 317 315 314 313 310 306 303 301 298 297 296 294 291 288 286 286 287 287 285 284 282 279 279 274 271 271 269 265 262 262 261
331 330 329 326 324 322 320 318 315 312 310 309 307 305 302 299 297 295 294 294 294 291 287 286 285 284 284 283 282 281 277 274 272 270 266 263 262 262
332 330 329 328 326 326 324 320 316 313 312 310 308 305 303 302 300 298 297 295 295 293 290 286 284 283 283 284 285 282 279 277 276 274 270 266 265 262
337 335 333 331 329 328 327 323 319 316 313 312 309 304 301 300 299 297 296 296 295 292 290 289 288 286 284 284 284 283 281 278 275 274 271 267 264 263
340 339 337 335 332 330 328 326 322 319 316 314 311 307 302 299 298 297 296 295 294 293 290 289 288 286 286 285 283 282 281 279 276 274 273 270 267 265
340 339 337 335 333 332 330 328 325 321 317 313 310 308 306 303 301 299 297 295 293 293 291 290 289 287 287 286 286 284 282 281 279 276 274 271 268 267
341 340 338 337 335 332 330 327 324 321 318 314 312 309 308 307 304 301 299 297 295 291 289 289 289 289 288 287 286 285 283 280 279 278 274 272 271 269
Height
5729 5726 5723 5721 5718 5716 5715 5713 5713 5712 5711 5709 5708 5708 5707 5708 5708 5708 5709 5710 5711 5713 5714 5715 5717 5719 5721 5722 5724 5726 5728 5730 5733 5735 5738 5741 5743 5746
5723 5720 5717 5715 5712 5710 5708 5707 5706 5705 5704 5703 5702 5701 5700 5700 5700 5701 5701 5702 5703 5704 5705 5707 5708 5710 5712 5713 5714 5716 5718 5720 5723 5725 5728 5731 5734 5737
5717 5715 5712 5709 5707 5704 5702 5700 5699 5698 5698 5697 5695 5694 5694 5693 5693 5693 5694 5694 5695 5696 5697 5698 5699 5701 5702 5703 5705 5707 5708 5710 5713 5715 5718 5721 5724 5727
5712 5709 5706 5704 5701 5698 5696 5694 5693 5691 5691 5690 5689 5688 5687 5687 5686 5686 5686 5686 5687 5687 5688 5690 5691 5692 5693 5694 5696 5697 5699 5701 5704 5706 5709 5712 5715 5717
5707 5704 5701 5698 5696 5693 5691 5689 5687 5685 5684 5683 5682 5681 5680 5680 5679 5679 5679 5679 5679 5679 5680 5681 5682 5683 5684 5685 5687 5688 5690 5692 5695 5697 5699 5702 5705 5708
5702 5699 5696 5693 5691 5688 5685 5683 5681 5679 5678 5677 5676 5674 5673 5673 5672 5672 5671 5671 5671 5671 5672 5672 5673 5674 5676 5677 5679 5680 5681 5683 5685 5687 5690 5693 5695 5698
5697 5694 5691 5688 5686 5683 5680 5678 5676 5674 5672 5671 5669 5668 5667 5666 5665 5665 5664 5664 5664 5664 5664 5665 5666 5667 5668 5669 5670 5671 5673 5674 5676 5678 5681 5683 5686 5689
5692 5689 5686 5683 5680 5678 5675 5673 5671 5669 5667 5665 5664 5662 5660 5659 5659 5658 5658 5657 5657 5658 5657 5658 5658 5660 5660 5661 5662 5663 5665 5666 5668 5670 5672 5675 5677 5680
5687 5684 5681 5678 5676 5673 5670 5668 5666 5664 5662 5660 5658 5656 5654 5653 5653 5652 5651 5651 5651 5650 5651 5651 5651 5652 5653 5653 5654 5655 5657 5658 5660 5661 5664 5666 5668 5670
5683 5680 5677 5675 5672 5669 5666 5663 5661 5659 5656 5654 5653 5651 5649 5648 5647 5646 5645 5645 5644 5644 5644 5645 5645 5645 5646 5646 5647 5647 5649 5650 5651 5653 5655 5657 5659 5661
5680 5677 5674 5671 5668 5665 5662 5659 5657 5654 5652 5649 5648 5646 5644 5643 5641 5641 5640 5639 5639 5638 5638 5638 5638 5638 5639 5639 5639 5640 5641 5642 5643 5644 5646 5648 5649 5651
5677 5674 5671 5668 5665 5661 5658 5655 5653 5650 5648 5645 5643 5641 5639 5638 5637 5636 5635 5634 5633 5632 5632 5632 5632 5632 5632 5632 5632 5632 5633 5633 5634 5635 5636 5638 5640 5641
5674 5671 5668 5664 5661 5658 5655 5652 5649 5646 5644 5641 5639 5637 5635 5633 5632 5631 5630 5629 5628 5627 5626 5626 5625 5625 5625 5625 5625 5625 5625 5625 5626 5626 5627 5629 5630 5631
5672 5668 5665 5661 5658 5655 5651 5648 5645 5643 5640 5638 5635 5633 5631 5629 5627 5626 5625 5624 5623 5622 5621 5620 5619 5619 5618 5618 5617 5617 5617 5617 5617 5618 5619 5620 5621 5622
5669 5665 5662 5658 5654 5651 5648 5645 5642 5639 5636 5634 5631 5629 5627 5625 5623 5621 5620 5619 5618 5616 5615 5614 5613 5612 5611 5611 5610 5610 5609 5609 5609 5610 5610 5611 5612 5612
5666 5662 5658 5654 5651 5647 5643 5640 5637 5634 5631 5629 5627 5624 5622 5620 5618 5617 5615 5614 5613 5611 5609 5608 5607 5606 5605 5604 5603 5602 5602 5602 5601 5601 5602 5602 5603 5604
5663 5658 5654 5650 5646 5642 5639 5636 5632 5630 5627 5624 5622 5619 5617 5615 5613 5611 5610 5608 5607 5605 5604 5602 5600 5599 5598 5597 5596 5595 5594 5594 5594 5593 5593 5594 5595 5595
5659 5654 5650 5646 5642 5638 5634 5630 5627 5624 5621 5619 5616 5614 5612 5610 5608 5606 5604 5602 5601 5599 5597 5596 5594 5593 5592 5591 5590 5588 5587 5586 5586 5585 5585 5585 5586 5587
5655 5650 5646 5641 5637 5633 5629 5625 5622 5619 5616 5613 5611 5608 5606 5604 5602 5600 5598 5596 5594 5592 5590 5589 5587 5586 5585 5584 5583 5581 5580 5579 5578 5577 5577 5577 5578 5579
5651 5646 5641 5637 5632 5628 5624 5620 5617 5614 5611 5608 5605 5602 5600 5598 5596 5594 5592 5590 5588 5586 5584 5582 5581 5579 5578 5577 5576 5574 5572 5571 5570 5570 5569 5569 5569 5570
5648 5642 5637 5633 5628 5623 5619 5615 5612 5608 5605 5602 5599 5596 5594 5591 5589 5587 5585 5583 5581 5579 5577 5576 5574 5572 5571 5569 5568 5567 5565 5564 5563 5562 5562 5561 5562 5562
5644 5639 5634 5628 5624 5619 5615 5611 5607 5603 5599 5596 5593 5590 5587 5584 5582 5580 5577 5575 5574 5572 5570 5568 5567 5565 5563 5562 5561 5559 5558 5557 5555 5555 5554 5554 5554 5554
5640 5635 5630 5624 5619 5615 5610 5606 5601 5597 5594 5590 5587 5583 5580 5577 5575 5572 5570 5568 5566 5564 5562 5561 5559 5558 5556 5554 5553 5552 5550 5549 5548 5548 5547 5547 5546 5547